Regional Weather Roundup
Issued by NWS State College, PA

Home | Current Version | Previous Version | Text Only | Print | Product List | Glossary Off
Versions: 1 2 3 4 5 6 7 8 9 10 11 12 13 14 15 16 17 18 19 20 21 22 23 24 25 26 27 28 29 30 31 32 33 34 35 36 37 38 39 40 41 42 43 44 45 46 47 48 49 50

000
ASUS41 KCTP 182210
RWRCTP

REGIONAL WEATHER ROUNDUP
NATIONAL WEATHER SERVICE STATE COLLEGE PA
500 PM EST SAT NOV 18 2017

Note: "fair" indicates few or no clouds below 12,000 feet with no
significant weather and/or obstructions to visibility.

* = STATION THAT DOES NOT REPORT PRECIPITATION /E.G. RAIN...SNOW...ETC/
    THUNDER OR FOG.

PAZ002>004-007>009-013>016-020>023-029>032-182300-
WESTERN PENNSYLVANIA

CITY           SKY/WX    TMP DP  RH WIND       PRES   REMARKS
ERIE           LGT RAIN  50  47  89 S17G23    29.21F FOG
MEADVILLE      LGT RAIN  48  47  96 S8        29.28F FOG
FRANKLIN*      LGT RAIN  47  45  93 SE12      29.32F
NEW CASTLE     CLOUDY    48  47  96 VRB3      29.30F
BEAVER COUNTY  CLOUDY    46  45  93 SE6       29.34S
BUTLER*        CLOUDY    50  46  86 S6        29.32F
PITTSBURGH INT CLOUDY    50  47  89 S6        29.30F
PITTSBURGH     CLOUDY    52  46  80 S12       29.31F
INDIANA*       CLOUDY    48  46  93 S8G15     29.42R
LATROBE        MOCLDY    59  48  67 SW17      29.37F
WASHINGTON CO* CLOUDY    55  48  77 S8        29.33F
$$

PAZ004>006-010>012-017>019-024>028-033>037-041-042-045-046-049>053-182300-
CENTRAL PENNSYLVANIA

CITY           SKY/WX    TMP DP  RH WIND       PRES   REMARKS
BRADFORD       LGT RAIN  46  45  96 S12G18    29.34F
DUBOIS         CLOUDY    45  42  89 SE12      29.37F
CLEARFIELD     LGT RAIN  42  41  96 CALM      29.44S
JOHNSTOWN      LGT RAIN  41  38  89 SE10      29.41F
ALTOONA        LGT RAIN  40  37  89 CALM      29.49F
STATE COLLEGE  CLOUDY    39  37  93 CALM      29.50F
WILLIAMSPORT   LGT RAIN  42  38  85 E9G17     29.53F
SELINSGROVE    LGT RAIN  41  40  96 SW3       29.56F FOG
FT INDIANTOWN  CLOUDY    41  41 100 NE3       29.59F FOG
CAPITAL CITY   CLOUDY    43  40  89 E3        29.57F FOG
HARRISBURG     CLOUDY    43  42  97 CALM      29.56F FOG
YORK           MOCLDY    41  41 100 CALM      29.57F FOG
$$

PAZ038>040-043-044-047-048-054-055-060>062-067>071-182300-
EASTERN PENNSYLVANIA

CITY           SKY/WX    TMP DP  RH WIND       PRES   REMARKS
SCRANTON       CLOUDY    42  39  89 W5        29.57F
MOUNT POCONO   LGT RAIN  38  38 100 SW12G20   29.57F
ALLENTOWN      RAIN      45  42  89 CALM      29.62F FOG
QUAKERTOWN*    CLOUDY    45  43  93 W3        29.65S
READING        RAIN      44  44 100 CALM      29.61F FOG
LANCASTER      LGT RAIN  44  44 100 E6        29.60F
COATESVILLE    CLOUDY    45  45 100 E5        29.62F
POTTSTOWN      LGT RAIN  43  43 100 CALM      29.65S FOG
BLUE BELL      CLOUDY    43  43 100 CALM      29.64F
DOYLESTOWN     RAIN      44  44 100 CALM      29.62F FOG
WILLOW GROVE   NOT AVBL
NORTH PHILA    CLOUDY    52  41  66 CALM      29.65F
PHILADELPHIA   LGT RAIN  53  40  61 S8        29.63F
$$




USA.gov is the U.S. government's official web portal to all federal, state and local government web resources and services.